Home > Weather > Medina > Past weeks

Flag for Saudi Arabia Past Weather in Medina, Saudi Arabia — Yesterday and Last 2 Weeks

Now
100 °F

Sunny.


Feels Like: 95 °F
Forecast: 80 / 113 °F
Wind: 3 mph from Southwest

Location: Madinah

Current Time: Jun 26, 2016 at 9:39:58 AM

Latest Report: Jun 26, 2016 at 9:00 AM


Visibility: 10 mi

Pressure: 29.89 "Hg (27.97 "Hg at 606m altitude)

Humidity: 7%

Dew Point: 25 °F

Location of MedinaLocation

Past Weather in Medina — Graph

°F

Medina Temperature Yesterday

Maximum temperature yesterday: 111 °F (at 3:00 PM)
Minimum temperature yesterday: 86 °F (at 6:00 AM)
Average temperature yesterday: 100 °F

High & Low Weather Summary for the Past Weeks

 TemperatureHumidityPressure
High111 °F (Jun 21, 3:00 PM)17% (Jun 12, 1:00 AM)30.04 "Hg (Jun 12, 1:00 AM)
Low82 °F (Jun 22, 6:00 AM)0% (Jun 11, 5:00 PM)29.68 "Hg (Jun 22, 6:00 PM)
Average100 °F6%29.83 "Hg
* Reported Jun 11 8:00 AM — Jun 26 8:00 AM, Medina, Weather by CustomWeather, © 2016

Note: Actual official high and low records may vary slightly from our data, if they occured in-between our weather recording intervals... More about our weather records

Advertising

Medina Weather History for the Previous 24 Hours

Scroll right to see more
 ConditionsComfort  
Time TempWeatherWind HumidityBarometerVisibility
8:00 AM
Sun, Jun 26
95 °FSunny.5 mph9%29.86 "Hg10 mi
7:00 AM90 °FSunny.7 mph11%29.86 "Hg10 mi
6:00 AM86 °FSunny.6 mph11%29.83 "Hg10 mi
5:00 AM86 °FClear.5 mph11%29.83 "Hg10 mi
4:00 AM90 °FClear.7 mph9%29.83 "Hg10 mi
3:00 AM91 °FClear.5 mph10%29.80 "Hg10 mi
2:00 AM97 °FClear.6 mph7%29.80 "Hg10 mi
1:00 AM97 °FClear.No wind6%29.80 "Hg10 mi
12:00 AM97 °FClear.6 mph5%29.83 "Hg10 mi
11:00 PM
Sat, Jun 25
100 °FClear.9 mph4%29.83 "Hg10 mi
10:00 PM104 °FClear.14 mph4%29.80 "Hg10 mi
9:00 PM104 °FClear.14 mph3%29.80 "Hg10 mi
8:00 PM106 °FClear.12 mph2%29.77 "Hg10 mi
7:00 PM108 °FSunny.9 mph2%29.77 "Hg10 mi
6:00 PM109 °FSunny.12 mph2%29.74 "Hg10 mi
4:00 PM109 °FSunny.16 mph2%29.77 "Hg10 mi
3:00 PM111 °FSunny.12 mph1%29.77 "Hg10 mi
2:00 PM109 °FSunny.8 mph1%29.77 "Hg10 mi
1:00 PM108 °FSunny.12 mph4%29.80 "Hg10 mi
12:00 PM104 °FSunny.12 mph4%29.80 "Hg10 mi
11:00 AM102 °FSunny.10 mph5%29.80 "Hg10 mi
10:00 AM100 °FSunny.7 mph8%29.80 "Hg10 mi
9:00 AM99 °FSunny.3 mph9%29.83 "Hg10 mi
Weather by CustomWeather, © 2016

See weather overviewHow to use our weather pages